Other Surface Observations
Issued by NWS Tucson, AZ

Home | Current Version | Previous Version | Text Only | Print | Product List | Glossary On
Versions: 1 2 3 4 5 6 7 8 9 10 11 12 13 14 15 16 17 18 19 20 21 22 23 24 25 26 27 28 29 30 31 32 33 34 35 36 37 38 39 40 41 42 43 44 45 46 47 48 49 50
000
SXUS55 KTWC 281415
OSOTWC

WEATHER ROUNDUP FOR SOUTHEAST ARIZONA
NATIONAL WEATHER SERVICE TUCSON AZ
715 AM MST TUE FEB 28 2017

AZZ504>506-514-281515-
LOCATION       SKY/WX    TMP DP  RH WIND       PRES   REMARKS
TUCSON         CLOUDY    60  30  32 SW13G22   29.90R
DAVIS-MONTHAN  CLOUDY    58  30  34 SW14      29.90R
CHILDRENS PARK N/A      N/A N/A  30 SW6               PIMA CO DEQ
ALVERNON/22ND  N/A       60 N/A N/A S4                PIMA CO DEQ
CHERRY/GLENN   N/A      N/A N/A N/A N/A               PIMA CO DEQ
TANGERINE      N/A       58 N/A N/A W6                PIMA CO DEQ
CONTL RANCH    N/A       60  30  32 SW12              PIMA CO DEQ
GRANT/1ST      N/A       60  28  30 SW4               PIMA CO DEQ
CRAYCROFT/22ND N/A       60  28  30 N/A               PIMA CO DEQ
GOLFLINKS/KOLB N/A       60  28  30 SW7               PIMA CO DEQ
AJO/12TH       N/A       60  28  29 S5                PIMA CO DEQ
FAIRGROUNDS    N/A       59 N/A N/A SW14              PIMA CO DEQ
SAGUARO        N/A       54  31  42 N3                *SABINO CYN
SAN CARLOS     N/A       49  47  92 CALM              *SAN CARLOS
GREEN VALLEY   N/A       57  27  32 SW15              PIMA CO DEQ
HORSE CAMP CYN N/A       49  35  59 SW6G13            *ARAVAIPA CYN
RINCON MTNS    N/A       32  20  62 SW6G20            *NR MANNING CAMP
$$

AZZ509>511-281515-
LOCATION       SKY/WX    TMP DP  RH WIND       PRES   REMARKS
SAFFORD        CLOUDY    54  30  40 W5        29.84S
STRAY HORSE    N/A       33  33  98 N/A               *
TRAIL CABIN    N/A       43  25  49 SW4G19            *N OF GRANVILLE
BLACK HILLS    NOT AVBL
DRY LAKE       N/A       35  33  94 W6G13             *NATANES MTNS
NOON CREEK     N/A       51  17  26 E8G17             *PINALENO MTNS
COLUMBINE      N/A       26  25  96 SW10G21           *PINALENO MTNS
GUTHRIE        N/A       43  20  40 SW21G41           *SW OF GUTHRIE
$$

AZZ502-503-513-281515-
LOCATION       SKY/WX    TMP DP  RH WIND       PRES   REMARKS
NOGALES        CLOUDY    52  28  39 S12       29.95R
SELLS          N/A       53  43  68 S5G10             *
SASABE         N/A       52  31  44 SW10G16           *ALTAR VLY
HOPKINS        N/A       38  22  52 W16G30            *SANTA RITA MTNS
CARR CYN       N/A       48  22  36 NE3G10            *W OF HEREFORD
$$

AZZ507-508-512-281515-
LOCATION       SKY/WX    TMP DP  RH WIND       PRES   REMARKS
SIERRA VISTA   CLOUDY    53  26  36 SW20G31   29.94R
DOUGLAS        CLOUDY    49  28  44 CALM      29.94S
EMPIRE MTNS    NOT AVBL
MULESHOE RANCH N/A       51  21  30 W7G15             *PRESERVE
HEADQUARTERS   NOT AVBL
$$

.............................NOTES.............................
THIS IS AN AUTOMATED COLLECTIVE WITH MINIMAL QUALITY CONTROL.
PIMA CO DEQ SITES HAVE NONSTANDARD WIND SENSOR HEIGHTS.
PIMA CO DEQ SITES DO NOT REPORT WIND GUSTS.
* INDICATES WIND SENSORS LOCATED AT 20 FEET INSTEAD OF 33 FEET.
..............................KEY..............................
SKY/WX - SKY CONDITION/WEATHER
TMP    - TEMPERATURE IN FAHRENHEIT
DP     - DEWPOINT IN FAHRENHEIT
RH     - RELATIVE HUMIDITY IN PERCENT
WIND   - DIRECTION AND SPEED IN MILES PER HOUR (MPH)
VRB    - VARIABLE WIND DIRECTION
PRES   - MEAN SEA LEVEL PRESSURE IN INCHES OF MERCURY
         F - FALLING PRESSURE   R - RISING PRESSURE
         S - STEADY PRESSURE
VSB    - VISIBILITY IN MILES
HX     - HEAT INDEX IN FAHRENHEIT
WCI    - WIND CHILL INDEX IN FAHRENHEIT
N/A    - NOT AVAILABLE
AFB    - AIR FORCE BASE
         DAVIS-MONTHAN IS DAVIS-MONTHAN AIR FORCE BASE
CYN    - CANYON
MTNS   - MOUNTAINS
NCA    - NATIONAL CONSERVATION AREA
NR     - NEAR
VLY    - VALLEY
CONTL  - CONTINENTAL
PIMA CO DEQ - PIMA COUNTY DEPT OF ENVIRONMENTAL QUALITY



USA.gov is the U.S. government's official web portal to all federal, state and local government web resources and services.